Hyannis, MA

8:40 PM EST on December 07, 2016 (GMT -0500)
Barnstable Municipal-Boardman-Polando Field

Weather History for KHYA - September, 2013

Change the Weather History Date:

Thursday, September 5, 2013

  Actual Average Record
Temperature  
Mean Temperature 62 °F -  
Max Temperature 75 °F 72 °F 86 °F (1959)
Min Temperature 50 °F 56 °F 41 °F (1965)
Degree Days  
Heating Degree Days 2    
Growing Degree Days 12 (Base 50)    
Moisture  
Dew Point 59 °F    
Average Humidity 85    
Maximum Humidity 97    
Minimum Humidity 66    
Precipitation  
Precipitation 0.04 in - - ()
Sea Level Pressure  
Sea Level Pressure 29.96 in    
Wind  
Wind Speed 6 mph (North)    
Max Wind Speed 14 mph    
Max Gust Speed 23 mph    
Visibility 10 miles    
Events Rain    
Averages and records for this station are not official NWS values.
T = Trace of Precipitation, MM = Missing Value Source: NWS Daily Summary

Daily Weather History Graph

Daily Weather History Graph

Search for Another Location

Airport or City:

Trip Planner

Search our weather history database for the weather conditions in past years. The results will help you decide how hot, cold, wet, or windy it might be!

Date:

Astronomy

Sep. 05, 2013 Rise Set
Actual Time 6:11 AM EDT 7:07 PM EDT
Civil Twilight 5:43 AM EDT 7:35 PM EDT
Nautical Twilight 5:09 AM EDT 8:09 PM EDT
Astronomical Twilight 4:34 AM EDT 8:44 PM EDT
Moon 6:20 AM EDT (9/5) 6:56 PM EDT (9/5)
Length of Visible Light 13h 52m
Length of Day
12h 55m
New Moon, 0% of the Moon is Illuminated
Sep 5
New Moon
Sep 12
First Quarter
Sep 19
Full
Sep 26
Last Quarter
Oct 4
New

Hourly Weather History & Observations

Time (EDT) Temp. Dew Point Humidity Pressure Visibility Wind Dir Wind Speed Gust Speed Precip Events Conditions
12:56 AM 64.9 °F 61.0 °F 87% 29.92 in 10.0 mi WSW 4.6 mph - N/A   Clear
1:56 AM 63.0 °F 61.0 °F 93% 29.91 in 10.0 mi Calm Calm - N/A   Clear
2:56 AM 64.9 °F 63.0 °F 93% 29.89 in 10.0 mi Calm Calm - N/A   Clear
3:56 AM 66.0 °F 64.0 °F 93% 29.89 in 10.0 mi WSW 4.6 mph - N/A   Clear
4:56 AM 64.9 °F 64.0 °F 97% 29.88 in 10.0 mi WSW 6.9 mph - N/A   Clear
5:56 AM 64.0 °F 62.1 °F 93% 29.88 in 10.0 mi WSW 4.6 mph - N/A   Clear
6:56 AM 66.0 °F 64.0 °F 93% 29.89 in 10.0 mi SW 5.8 mph - N/A   Clear
7:56 AM 70.0 °F 64.9 °F 84% 29.89 in 10.0 mi WSW 9.2 mph - N/A   Clear
8:56 AM 73.0 °F 64.9 °F 76% 29.90 in 10.0 mi West 8.1 mph - N/A   Mostly Cloudy
9:56 AM 72.0 °F 60.1 °F 66% 29.92 in 10.0 mi NW 10.4 mph - N/A   Overcast
10:56 AM 64.9 °F 62.1 °F 90% 29.94 in 7.0 mi North 11.5 mph - 0.01 in Rain Light Rain
11:47 AM 64.4 °F 62.6 °F 94% 29.93 in 7.0 mi North 11.5 mph - 0.03 in Rain Light Rain
11:56 AM 64.9 °F 63.0 °F 93% 29.94 in 10.0 mi North 11.5 mph - 0.03 in   Overcast
12:03 PM 66.2 °F 62.6 °F 88% 29.93 in 10.0 mi North 10.4 mph - N/A   Overcast
12:56 PM 69.1 °F 63.0 °F 81% 29.94 in 10.0 mi NNE 12.7 mph - N/A   Overcast
1:10 PM 66.2 °F 60.8 °F 83% 29.94 in 10.0 mi NE 11.5 mph 23.0 mph N/A   Overcast
1:21 PM 66.2 °F 62.6 °F 88% 29.95 in 10.0 mi NNE 9.2 mph 16.1 mph N/A   Overcast
1:56 PM 66.9 °F 61.0 °F 81% 29.96 in 10.0 mi NE 9.2 mph - N/A   Overcast
2:26 PM 68.0 °F 60.8 °F 78% 29.96 in 10.0 mi ENE 9.2 mph - N/A   Mostly Cloudy
2:44 PM 66.2 °F 59.0 °F 78% 29.96 in 10.0 mi NE 12.7 mph 17.3 mph N/A   Mostly Cloudy
2:56 PM 66.0 °F 59.0 °F 78% 29.97 in 10.0 mi NE 13.8 mph - N/A   Overcast
3:20 PM 66.2 °F 57.2 °F 73% 29.96 in 10.0 mi NE 10.4 mph - N/A   Mostly Cloudy
3:56 PM 66.0 °F 55.9 °F 70% 29.97 in 10.0 mi NE 12.7 mph - N/A   Clear
4:56 PM 64.0 °F 54.0 °F 70% 29.99 in 10.0 mi NE 6.9 mph - N/A   Overcast
5:56 PM 63.0 °F 55.0 °F 75% 30.01 in 10.0 mi ENE 4.6 mph - N/A   Overcast
6:56 PM 62.1 °F 55.0 °F 78% 30.02 in 10.0 mi Calm Calm - 0.00 in Rain Light Rain
7:56 PM 57.9 °F 55.0 °F 90% 30.04 in 10.0 mi Calm Calm - 0.00 in   Clear
8:56 PM 55.0 °F 53.1 °F 93% 30.07 in 10.0 mi Calm Calm - N/A   Clear
9:56 PM 54.0 °F 52.0 °F 93% 30.09 in 10.0 mi Calm Calm - N/A   Clear
10:56 PM 52.0 °F 50.0 °F 93% 30.10 in 10.0 mi Calm Calm - N/A   Clear
11:56 PM 50.0 °F 48.0 °F 93% 30.11 in 10.0 mi Calm Calm - N/A   Clear